Find Starlink 34533

NORAD ID: 64715 Int'l Des: 2025-142 Owner: SPXS Country: US Constellation: starlink operational
LEOCIRCULAR

Live-Position

3D-Globus wird geladen...

Über Starlink 34533

Beschreibung wird geladen...

Nächste Überflüge

Passes for default location (London). Set your location on the main map for personalized predictions.

Höhenverlauf

Loading altitude history...

Zweizeiliger Elementsatz

1 64715U 25142V 26107.02608856 .00007459 00000-0 63213-3 0 9991
2 64715 70.0021 217.7763 0003315 273.2200 86.8580 14.98335015 45201
Epoch: 17. Apr. 2026 • Age: 19 hours

Aktueller Status

Höhe 586.7 km
Geschwindigkeit 7.57 km/s
Subsatellitenpunkt -44.12°S, 54.67°E
Startdatum 28. Juni 2025
Alter 0.8 years
Typ internet

Technische Details

Klassifizierung Payload
Masse 575.00 kg
Trockenmasse 530.00 kg
Gesamtmasse 575.00 kg
Länge 0.30 m
Durchmesser 4.10 m
Spannweite 29.00 m
Form Box + pan
Hersteller SPXS
Bus-Typ Starlink V2MO
Phasenstatus In Orbit
Besitzer/Staat SPXS/US

Most Searched